Satellite: CO-57
Catalog number: 27848
Epoch time:      09217.55947731
Element set:    0587
Inclination:      098.7164 deg
RA of node:       225.0894 deg
Eccentricity:    0.0010178
Arg of perigee:   010.7093 deg
Mean anomaly:     349.4304 deg
Mean motion:   14.20450198 rev/day
Decay rate:        1.4e-07 rev/day^2
Epoch rev:           31623
Checksum:              315

Satellite: AO-51
Catalog number: 28375
Epoch time:      09218.45733493
Element set:     454
Inclination:      098.0523 deg
RA of node:       225.1303 deg
Eccentricity:    0.0084466
Arg of perigee:   333.4001 deg
Mean anomaly:     026.2872 deg
Mean motion:   14.40648523 rev/day
Decay rate:       -5.0e-08 rev/day^2
Epoch rev:           26819
Checksum:              295

Satellite: CO-56
Catalog number: 28941
Epoch time:      09218.57306559
Element set:     322
Inclination:      098.1343 deg
RA of node:       042.7487 deg
Eccentricity:    0.0068458
Arg of perigee:   299.9969 deg
Mean anomaly:     059.4746 deg
Mean motion:   15.90941206 rev/day
Decay rate:     6.3575e-04 rev/day^2
Epoch rev:           19524
Checksum:              373

Satellite: GENESAT1
Catalog number: 29655
Epoch time:      09217.47317751
Element set:    0782
Inclination:      040.0232 deg
RA of node:       234.2800 deg
Eccentricity:    0.0001400
Arg of perigee:   167.8443 deg
Mean anomaly:     192.2408 deg
Mean motion:   15.66538409 rev/day
Decay rate:      8.746e-05 rev/day^2
Epoch rev:           15020
Checksum:              281

Satellite: CP3
Catalog number: 31129
Epoch time:      09218.54157338
Element set:     111
Inclination:      097.9867 deg
RA of node:       269.2011 deg
Eccentricity:    0.0103598
Arg of perigee:   128.7210 deg
Mean anomaly:     232.3316 deg
Mean motion:   14.52153339 rev/day
Decay rate:       1.37e-06 rev/day^2
Epoch rev:           12219
Checksum:              283

Satellite: CO-65
Catalog number: 32785
Epoch time:      09217.83470974
Element set:    0441
Inclination:      097.9419 deg
RA of node:       281.3832 deg
Eccentricity:    0.0014017
Arg of perigee:   228.2296 deg
Mean anomaly:     131.7701 deg
Mean motion:   14.81506380 rev/day
Decay rate:       2.47e-06 rev/day^2
Epoch rev:           06879
Checksum:              325

Satellite: KKS-1
Catalog number: 33493
Epoch time:      09218.57905894
Element set:     635
Inclination:      098.0592 deg
RA of node:       331.0180 deg
Eccentricity:    0.0021447
Arg of perigee:   079.5538 deg
Mean anomaly:     280.8087 deg
Mean motion:   14.80709027 rev/day
Decay rate:       1.57e-06 rev/day^2
Epoch rev:            2892
Checksum:              323

Satellite: SOHLA-1
Catalog number: 33496
Epoch time:      09218.57202649
Element set:     599
Inclination:      098.0404 deg
RA of node:       327.1025 deg
Eccentricity:    0.0007675
Arg of perigee:   117.0566 deg
Mean anomaly:     243.1427 deg
Mean motion:   14.69441616 rev/day
Decay rate:       -2.7e-07 rev/day^2
Epoch rev:            2867
Checksum:              309

/EX
SB KEPS @ AMSAT  $ORB09218.W
Orbital Elements  09218.WEATHER

HR AMSAT ORBITAL ELEMENTS FOR WEATHER SATELLITES
FROM WA5QGD FORT WORTH,TX August 6, 2009
Send Subscribe/unsubscribe to KEPS at 
http://www.amsat.org/mailman/listinfo/keps
BID: ORB09218.W
TO ALL RADIO AMATEURS BT

Satellite: NOAA-10
Catalog number: 16969
Epoch time:      09217.99666487
Element set:    0715
Inclination:      098.6907 deg
RA of node:       244.3694 deg
Eccentricity:    0.0013158
Arg of perigee:   053.3257 deg
Mean anomaly:     306.9141 deg
Mean motion:   14.27391552 rev/day
Decay rate:       -1.8e-07 rev/day^2
Epoch rev:           19061
Checksum:              334

Satellite: NOAA-11
Catalog number: 19531
Epoch time:      09217.84998358
Element set:    0731
Inclination:      098.7844 deg
RA of node:       307.0363 deg
Eccentricity:    0.0011309
Arg of perigee:   331.0407 deg
Mean anomaly:     029.0125 deg
Mean motion:   14.14900335 rev/day
Decay rate:        7.0e-08 rev/day^2
Epoch rev:           07654
Checksum:              289

Satellite: NOAA-12
Catalog number: 21263
Epoch time:      09218.07999985
Element set:    0253
Inclination:      098.7728 deg
RA of node:       226.1638 deg
Eccentricity:    0.0012885
Arg of perigee:   006.4290 deg
Mean anomaly:     353.7052 deg
Mean motion:   14.25587875 rev/day
Decay rate:        2.0e-07 rev/day^2
Epoch rev:           94750
Checksum:              332

Satellite: MET-3/5
Catalog number: 21655
Epoch time:      09218.06096707
Element set:    0695
Inclination:      082.5584 deg
RA of node:       171.2668 deg
Eccentricity:    0.0014987
Arg of perigee:   058.0416 deg
Mean anomaly:     302.2162 deg
Mean motion:   13.17020146 rev/day
Decay rate:        5.1e-07 rev/day^2
Epoch rev:           86419
Checksum:              304

Satellite: MET-2/21
Catalog number: 22782
Epoch time:      09217.78658182
Element set:    0530
Inclination:      082.5503 deg
RA of node:       142.6720 deg
Eccentricity:    0.0021450
Arg of perigee:   204.2758 deg
Mean anomaly:     155.7402 deg
Mean motion:   13.83639308 rev/day
Decay rate:        8.9e-07 rev/day^2
Epoch rev:           80446
Checksum:              301

